DW2610 Weather Reports


time (UTC)temp
F
wind
direction
speed
knots
gust
knots
rain 1hr
in
rain 24hr
in
rain mn
in
humidity
%
barometer
mb
20260906211008 80 101 4.3 13.0 0.00 0.00 0.00 47 1018.5
20260906210033 82 201 4.3 13.0 0.00 0.00 0.00 45 1018.5
20260906203933 82 201 3.5 8.7 0.00 0.00 0.00 46 1018.6
20260906202906 81 83 4.3 13.9 0.00 0.00 0.00 45 1018.7
20260906201848 82 107 4.3 13.9 0.00 0.00 0.00 44 1018.5
20260906195704 84 109 1.7 7.8 0.00 0.00 0.00 43 1018.6
20260906194635 82 31 2.6 9.6 0.00 0.00 0.00 47 1018.6
20260906193655 82 52 1.7 9.6 0.00 0.00 0.00 46 1018.7
20260906192634 80 30 1.7 7.8 0.00 0.00 0.00 47 1018.8
20260906191655 80 49 0.9 4.3 0.00 0.00 0.00 48 1018.9
20260906190625 80 0 1.7 7.0 0.00 0.00 0.00 48 1019.1
20260906185641 80 40 0.9 5.2 0.00 0.00 0.00 47 1019.0
20260906184639 81 53 1.7 7.0 0.00 0.00 0.00 46 1019.1
20260906183645 82 53 1.7 7.0 0.00 0.00 0.00 45 1019.2
20260906182657 83 37 1.7 6.1 0.00 0.00 0.00 43 1019.3
20260906181648 85 329 1.7 6.1 0.00 0.00 0.00 40 1019.4
20260906180634 86 299 1.7 6.1 0.00 0.00 0.00 32 1019.5
20260906175636 86 291 1.7 8.7 0.00 0.00 0.00 36 1019.6
20260906174638 85 240 2.6 8.7 0.00 0.00 0.00 36 1019.6
20260906173648 85 196 1.7 7.8 0.00 0.00 0.00 38 1019.7
20260906172652 84 301 0.0 5.2 0.00 0.00 0.00 39 1019.8
20260906171710 83 17 1.7 7.0 0.00 0.00 0.00 41 1019.9
20260906165453 82 159 2.6 5.2 0.00 0.00 0.00 45 1020.0
20260906164458 81 213 3.5 8.7 0.00 0.00 0.00 45 1020.2
20260906163424 80 107 2.6 7.8 0.00 0.00 0.00 47 1020.3
20260906162359 79 183 1.7 7.0 0.00 0.00 0.00 47 1020.6
20260906161351 79 151 1.7 11.3 0.00 0.00 0.00 48 1020.5
20260906160341 78 156 2.6 11.3 0.00 0.00 0.00 49 1020.5
20260906155352 77 132 2.6 7.0 0.00 0.00 0.00 49 1020.5
20260906153219 75 161 0.0 6.1 0.00 0.00 0.00 55 1020.3
20260906152200 74 184 0.0 0.0 0.00 0.00 0.00 57 1020.2
20260906151217 73 165 0.0 0.0 0.00 0.00 0.00 59 1020.2
20260906150238 72 173 0.0 0.0 0.00 0.00 0.00 61 1020.2
20260906145225 71 180 0.0 2.6 0.00 0.00 0.00 62 1020.3
20260906144200 70 180 1.7 5.2 0.00 0.00 0.00 65 1020.5
20260906143217 70 165 0.9 7.8 0.00 0.00 0.00 67 1020.4
20260906142143 70 174 2.6 7.8 0.00 0.00 0.00 67 1020.3
20260906141145 68 155 2.6 7.0 0.00 0.00 0.00 69 1020.4
20260906140157 65 142 0.0 7.0 0.00 0.00 0.00 78 1020.4
20260906135205 62 58 0.0 0.0 0.00 0.00 0.00 88 1020.2
20260906134150 60 58 0.0 0.0 0.00 0.00 0.00 92 1020.2
20260906133121 57 58 0.0 0.0 0.00 0.00 0.00 92 1020.1
20260906132137 56 58 0.0 0.0 0.00 0.00 0.00 91 1020.2
20260906131141 56 58 0.0 0.0 0.00 0.00 0.00 90 1020.2
20260906125100 56 58 0.0 0.0 0.00 0.00 0.00 87 1020.2
20260906122854 57 58 0.0 0.0 0.00 0.00 0.00 87 1020.2
20260906121901 57 58 0.0 1.7 0.00 0.00 0.00 86 1020.3
20260906115642 58 114 0.0 0.0 0.00 0.00 0.00 85 1020.3
20260906114617 59 114 0.0 0.0 0.00 0.00 0.00 84 1020.3
20260906113543 60 114 0.0 0.0 0.00 0.00 0.00 83 1020.3
20260906112532 60 114 0.0 0.0 0.00 0.00 0.00 84 1020.2
20260906111515 61 114 0.0 0.0 0.00 0.00 0.00 84 1020.2
20260906110508 61 114 0.0 0.0 0.00 0.00 0.00 83 1020.3
20260906104353 61 146 0.0 0.0 0.00 0.00 0.00 83 1020.3
20260906103334 61 157 0.9 3.5 0.00 0.00 0.00 84 1020.3
20260906102314 61 197 0.9 3.5 0.00 0.00 0.00 85 1020.2
20260906101319 60 205 0.0 0.0 0.00 0.00 0.00 85 1020.2
20260906100303 60 210 0.0 0.0 0.00 0.00 0.00 85 1020.2
20260906095300 60 210 0.0 0.0 0.00 0.00 0.00 84 1020.2
20260906093206 60 103 0.0 1.7 0.00 0.00 0.00 85 1020.0
20260906092204 59 165 0.0 2.6 0.00 0.00 0.00 87 1020.0
20260906091222 58 184 0.0 0.0 0.00 0.00 0.00 87 1020.1
20260906090203 58 184 0.0 4.3 0.00 0.00 0.00 88 1020.1
20260906085138 57 167 0.0 0.0 0.00 0.00 0.00 89 1020.2
20260906084103 57 221 0.0 0.0 0.00 0.00 0.00 89 1020.2
20260906083039 57 221 0.0 0.0 0.00 0.00 0.00 89 1020.3
20260906082057 57 221 0.0 0.0 0.00 0.00 0.00 89 1020.4
20260906075925 57 221 0.0 0.0 0.00 0.00 0.00 87 1020.3
20260906074912 57 221 0.0 0.0 0.00 0.00 0.00 87 1020.3
20260906073851 58 221 0.0 0.0 0.00 0.00 0.00 87 1020.4
20260906071726 58 221 0.0 0.0 0.00 0.00 0.00 83 1020.4
20260906070732 59 221 0.0 0.0 0.00 0.00 0.00 80 1020.3
20260906065728 60 221 0.0 0.0 0.00 0.00 0.00 79 1020.4
20260906064715 60 221 0.0 0.0 0.00 0.00 0.00 78 1020.6
20260906063735 61 221 0.0 0.0 0.00 0.00 0.00 77 1020.7
20260906062727 61 221 0.0 0.0 0.00 0.00 0.00 77 1020.7
20260906061717 61 221 0.0 0.0 0.00 0.00 0.00 77 1020.7
20260906055529 60 178 0.0 1.7 0.00 0.00 0.00 77 1020.8
20260906053403 60 5 0.0 0.0 0.00 0.00 0.00 77 1020.8
20260906052354 60 5 0.0 0.0 0.00 0.00 0.00 76 1020.9
20260906051331 60 5 0.0 0.0 0.00 0.00 0.00 77 1020.8
20260906050350 60 5 0.0 0.0 0.00 0.00 0.00 77 1020.7
20260906045404 60 5 0.0 0.0 0.00 0.00 0.00 76 1020.7
20260906044424 61 5 0.0 0.0 0.00 0.00 0.00 76 1020.7
20260906043413 61 5 0.0 0.0 0.00 0.00 0.00 75 1020.7
20260906042408 61 5 0.0 0.0 0.00 0.00 0.00 74 1020.8
20260906041418 61 5 0.0 0.0 0.00 0.00 0.00 72 1020.9
20260906040348 61 5 0.0 0.0 0.00 0.00 0.00 72 1021.0
20260906035340 62 5 0.0 0.0 0.00 0.00 0.00 70 1021.0
20260906033158 62 5 0.0 0.0 0.00 0.00 0.00 67 1021.1
20260906031037 64 5 0.0 0.0 0.00 0.00 0.00 61 1021.3
20260906030043 66 5 0.0 0.0 0.00 0.00 0.00 60 1021.1
20260906023909 69 5 0.0 0.0 0.00 0.00 0.00 54 1021.0
20260906022835 70 5 0.0 0.0 0.00 0.00 0.00 52 1020.8
20260906020710 72 34 0.0 0.0 0.00 0.00 0.00 48 1020.7
20260906015649 73 36 0.0 0.0 0.00 0.00 0.00 47 1020.5
20260906014702 74 36 0.0 0.0 0.00 0.00 0.00 45 1020.5
20260906013647 75 74 0.0 0.0 0.00 0.00 0.00 44 1020.5
20260906012658 75 132 0.0 0.0 0.00 0.00 0.00 43 1020.6
20260906011721 76 146 2.6 7.0 0.00 0.00 0.00 43 1020.7
20260906010740 76 140 2.6 7.8 0.00 0.00 0.00 44 1020.6
20260906005749 77 157 0.9 7.8 0.00 0.00 0.00 43 1020.6
20260906004730 77 109 0.9 7.8 0.00 0.00 0.00 42 1020.5
20260906003715 77 91 0.9 5.2 0.00 0.00 0.00 41 1020.5
20260906001510 78 130 1.7 7.0 0.00 0.00 0.00 42 1020.3
20260906000533 78 181 3.5 7.8 0.00 0.00 0.00 41 1020.2
20260905234424 80 173 3.5 11.3 0.00 0.00 0.00 41 1020.1
20260905233436 80 187 3.5 11.3 0.00 0.00 0.00 37 1020.1
20260905232458 79 150 1.7 7.8 0.00 0.00 0.00 38 1020.0
20260905231438 78 181 0.0 0.0 0.00 0.00 0.00 40 1020.1
20260905230427 79 150 1.7 0.0 0.00 0.00 0.00 42 1020.0
20260905224232 82 228 0.9 6.1 0.00 0.00 0.00 31 1019.9
20260905223249 82 173 0.0 0.0 0.00 0.00 0.00 40 1020.0
20260905222256 82 173 0.0 0.0 0.00 0.00 0.00 39 1019.9
20260905221317 82 173 0.0 0.0 0.00 0.00 0.00 32 1020.0
20260905220316 82 156 0.0 3.5 0.00 0.00 0.00 34 1020.1
20260905215306 82 156 0.9 0.0 0.00 0.00 0.00 34 1020.1
20260905214258 83 195 0.9 2.6 0.00 0.00 0.00 31 1020.2
20260905213319 85 148 2.6 11.3 0.00 0.00 0.00 30 1020.2